Location: Okie-Tex Star Party
(36.8978°N, 102.9520°W)
Time: 10:00:05
(UTC-05:00)

Amateur Radio Satellites - All Passes

Search period start: 25 August 2016 09:30
Search period end: 26 August 2016 09:30
Location: Okie-Tex Star Party, 36.8978°N, 102.9520°W

Satellite Date Start Highest point End Downlink Frequencies (MHz)
Time Altitude Azimuth
CANX-2 25 Aug 09:30:07 09:34:16 55° 100° (E) 09:38:26 2200.000
SO-50 25 Aug 09:33:06 09:36:36 21° 48° (NE) 09:40:00 436.795
CINEMA 3 25 Aug 09:33:29 09:38:03 70° 101° (E) 09:42:22 145.822/145.860
CUTE 1.7 + AOD 2 25 Aug 09:36:48 09:40:58 57° 100° (E) 09:45:07 437.475
PRISM 25 Aug 09:45:57 09:50:00 72° 75° (ENE) 09:54:06 437.425
GOMX 1 25 Aug 09:50:41 09:52:54 13° 299° (WNW) 09:55:06 467.674
AIST 1 25 Aug 09:52:10 09:54:56 17° 87° (E) 09:57:44
AAUSAT CUBESAT 2 25 Aug 09:54:10 09:57:54 32° 97° (E) 10:01:37 437.432
COMPASS 1 25 Aug 09:59:08 10:03:10 48° 99° (E) 10:07:13 437.405
ISS 25 Aug 09:59:55 10:02:48 29° 132° (SE) 10:05:42 145.825
HO-68 25 Aug 10:04:57 10:12:10 90° 273° (W) 10:19:19 435.675
CUBEBUG 2 25 Aug 10:10:32 10:14:38 46° 99° (E) 10:18:37 437.445
DOVE 4 25 Aug 10:11:01 10:13:50 15° 297° (WNW) 10:16:34 437.250
Oscar 11 25 Aug 10:12:18 10:15:28 20° 94° (E) 10:18:37 145.826/435.025
UWE-3 25 Aug 10:14:20 10:18:06 32° 97° (E) 10:21:49 435.000/436.395/437.385
FUNcube-1 25 Aug 10:16:00 10:18:58 19° 94° (E) 10:21:56 145.935
ANTELSAT 25 Aug 10:22:08 10:25:13 18° 67° (ENE) 10:28:16 437.575/2403.000
BEESAT 3 25 Aug 10:27:34 10:29:59 16° 110° (ESE) 10:32:24 437.485
CUSAT 1 25 Aug 10:28:24 10:32:09 16° 71° (ENE) 10:36:15 437.405
ZACube-1 25 Aug 10:35:13 10:39:02 35° 98° (E) 10:42:49 437.345
SEEDS 25 Aug 10:50:31 10:54:04 27° 289° (WNW) 10:57:39 437.485
TIGRISAT 25 Aug 10:52:35 10:56:48 35° 72° (ENE) 11:00:58 435.000
Cosmos 2504 25 Aug 11:04:46 11:09:50 17° 293° (WNW) 11:14:45 435.465 / 435.565
CANX-2 25 Aug 11:08:12 11:09:38 11° 295° (WNW) 11:11:03 2200.000
SO-50 25 Aug 11:12:56 11:17:14 41° 245° (WSW) 11:21:25 436.795
CINEMA 3 25 Aug 11:13:59 11:14:28 10° 298° (WNW) 11:14:57 145.822/145.860
CUTE 1.7 + AOD 2 25 Aug 11:15:01 11:16:17 11° 295° (WNW) 11:17:33 437.475
UNISAT 6 25 Aug 11:19:47 11:24:26 77° 76° (ENE) 11:29:01 437.425
RS-15 25 Aug 11:20:32 11:32:32 52° 50° (NE) 11:44:16 29.354- 29.394
AIST 1 25 Aug 11:28:17 11:32:13 33° 282° (WNW) 11:36:11
AAUSAT CUBESAT 2 25 Aug 11:30:16 11:33:07 18° 292° (WNW) 11:35:59 437.432
QB50P2 25 Aug 11:32:44 11:35:08 15° 66° (ENE) 11:37:31 145.880/145.840
DUCHIFAT 1 25 Aug 11:34:42 11:36:32 13° 65° (ENE) 11:38:21 145.980
POLYITAN 1 25 Aug 11:35:13 11:37:40 15° 66° (ENE) 11:40:06 437.675
ISS 25 Aug 11:36:24 11:39:15 26° 328° (NNW) 11:42:05 145.825
COMPASS 1 25 Aug 11:36:26 11:38:17 13° 294° (WNW) 11:40:08 437.405
BEESAT 2 25 Aug 11:39:40 11:43:32 56° 117° (ESE) 11:47:25 435.950
HUMSAT D 25 Aug 11:45:31 11:49:25 44° 99° (E) 11:53:20 437.325/437.525
NANOSAT C BR1 25 Aug 11:45:54 11:48:49 18° 68° (ENE) 11:51:46 145.865
Oscar 11 25 Aug 11:47:49 11:51:36 30° 289° (WNW) 11:55:23 145.826/435.025
CUBEBUG 2 25 Aug 11:48:47 11:50:47 13° 295° (WNW) 11:52:47 437.445
UWE-3 25 Aug 11:51:29 11:54:18 18° 292° (WNW) 11:57:06 435.000/436.395/437.385
FUNcube-1 25 Aug 11:51:40 11:55:14 28° 289° (WNW) 11:58:47 145.935
HO-68 25 Aug 11:54:50 11:58:52 16° 304° (WNW) 12:02:55 435.675
DELFI C3 25 Aug 11:56:11 12:00:06 55° 285° (WNW) 12:04:01 145.870
ANTELSAT 25 Aug 11:57:13 12:01:36 41° 261° (W) 12:05:55 437.575/2403.000
BEESAT 3 25 Aug 12:03:43 12:07:19 36° 305° (NW) 12:10:59 437.485
CUSAT 1 25 Aug 12:08:05 12:14:26 85° 263° (W) 12:22:09 437.405
ZACube-1 25 Aug 12:12:25 12:15:01 16° 293° (WNW) 12:17:37 437.345
AUBIESAT-1 25 Aug 12:20:31 12:23:29 20° 98° (E) 12:26:18 437.475
Cosmos 2499 25 Aug 12:23:05 12:28:36 20° 83° (E) 12:33:53 435.465 / 435.565
M-CUBED/EXP-1 PRIME 25 Aug 12:23:24 12:26:57 27° 100° (E) 12:30:15 437.505
QB50P1 25 Aug 12:26:50 12:31:01 58° 75° (ENE) 12:35:14 145.935-145.965
TIGRISAT 25 Aug 12:30:09 12:33:31 20° 266° (W) 12:36:52 435.000
POPSAT HIP 1 25 Aug 12:36:30 12:40:46 75° 77° (ENE) 12:45:03 437.405
BUGSAT 1 25 Aug 12:39:04 12:42:42 28° 71° (ENE) 12:46:21 437.445
DANDE 25 Aug 12:39:08 12:44:25 72° 81° (E) 12:51:23 436.750
VELOX 1 25 Aug 12:50:03 12:53:14 19° 94° (E) 12:56:23 145.980
CUBEBUG 1 25 Aug 12:58:38 13:02:31 29° 97° (E) 13:06:22 437.445
QB50P2 25 Aug 13:06:28 13:10:32 43° 261° (W) 13:14:38 145.880/145.840
DUCHIFAT 1 25 Aug 13:07:36 13:11:45 51° 260° (W) 13:15:55 145.980
POLYITAN 1 25 Aug 13:09:00 13:13:05 42° 261° (W) 13:17:10 437.675
JAS-2 25 Aug 13:10:35 13:15:42 70° 74° (ENE) 13:21:03 435.910
GONETS M04 25 Aug 13:15:36 13:24:10 64° 92° (E) 13:32:50
DX 1 25 Aug 13:16:06 13:19:42 24° 96° (E) 13:23:15 434.975-435.025
ESTCUBE 1 25 Aug 13:18:18 13:22:52 80° 102° (ESE) 13:27:24 437.505/2401.250
BEESAT 2 25 Aug 13:19:46 13:21:42 13° 314° (NW) 13:23:38 435.950
Oscar 19 25 Aug 13:20:16 13:23:34 17° 64° (ENE) 13:26:52 437.125/150
NANOSAT C BR1 25 Aug 13:20:25 13:24:17 33° 262° (W) 13:28:11 145.865
HUMSAT D 25 Aug 13:22:46 13:24:38 13° 294° (WNW) 13:26:30 437.325/437.525
AIST 2 25 Aug 13:28:48 13:32:26 31° 113° (ESE) 13:36:06 435.215
SPROUT 25 Aug 13:28:54 13:32:27 25° 96° (E) 13:35:59 437.525
50 SAT 25 Aug 13:31:19 13:34:55 60° 101° (E) 13:38:31 437.505
PCSat 25 Aug 13:32:59 13:38:24 86° 116° (ESE) 13:43:51 145.827
RS-15 25 Aug 13:33:26 13:44:58 49° 252° (WSW) 13:56:16 29.354- 29.394
AISAT 25 Aug 13:37:42 13:42:11 72° 102° (ESE) 13:46:36 437.250
CUSAT 1 25 Aug 13:53:04 13:55:57 13° 274° (W) 13:59:00 437.405
AUBIESAT-1 25 Aug 13:54:29 13:57:57 27° 295° (WNW) 14:01:11 437.475
M-CUBED/EXP-1 PRIME 25 Aug 13:58:08 14:01:16 21° 298° (WNW) 14:04:14 437.505
TISAT 1 25 Aug 14:00:02 14:00:49 10° 91° (E) 14:01:35 437.305
UKube-1 25 Aug 14:01:05 14:05:24 63° 101° (E) 14:09:41 .
QB50P1 25 Aug 14:06:39 14:07:07 10° 269° (W) 14:07:36 145.935-145.965
Gurwin Techsat 1B 25 Aug 14:08:45 14:12:52 23° 66° (ENE) 14:17:00 435.225
JUGNU 25 Aug 14:11:48 14:14:44 14° 176° (S) 14:17:39 437.505
Cosmos 2499 25 Aug 14:12:40 14:21:00 71° 278° (W) 14:28:44 435.465 / 435.565
BUGSAT 1 25 Aug 14:14:49 14:18:02 21° 265° (W) 14:21:17 437.445
DANDE 25 Aug 14:24:00 14:27:02 15° 269° (W) 14:30:24 436.750
VELOX 1 25 Aug 14:25:42 14:29:45 34° 289° (WNW) 14:33:46 145.980
ITAMSAT 1 25 Aug 14:31:14 14:32:16 11° 60° (ENE) 14:33:18 435.822/435.867
CUBEBUG 1 25 Aug 14:35:11 14:38:37 22° 292° (WNW) 14:42:01 437.445
DX 1 25 Aug 14:52:09 14:55:48 26° 291° (WNW) 14:59:25 434.975-435.025
Oscar 19 25 Aug 14:57:24 15:02:24 53° 260° (W) 15:07:29 437.125/150
JAS-2 25 Aug 15:00:22 15:01:27 11° 271° (W) 15:02:33 435.910
SPROUT 25 Aug 15:04:51 15:08:17 24° 291° (WNW) 15:11:41 437.525
AIST 2 25 Aug 15:07:45 15:10:56 22° 310° (NW) 15:14:10 435.215
AO-85 25 Aug 15:12:01 15:14:46 16° 46° (NE) 15:17:24 145.980
GONETS M04 25 Aug 15:14:42 15:21:35 25° 291° (WNW) 15:28:34
O/OREOS (USA 219) 25 Aug 15:14:43 15:19:03 54° 107° (ESE) 15:23:28 437.305
AISAT 25 Aug 15:17:39 15:18:00 10° 297° (WNW) 15:18:21 437.250
PCSat 25 Aug 15:19:36 15:22:30 14° 314° (NW) 15:25:25 145.827
SWISSCUBE 25 Aug 15:27:50 15:31:39 23° 96° (E) 15:35:26 437.505
TISAT 1 25 Aug 15:32:39 15:36:46 54° 286° (WNW) 15:40:50 437.305
UKube-1 25 Aug 15:39:48 15:40:52 11° 297° (WNW) 15:41:56 .
SRMSAT 25 Aug 15:44:31 15:46:46 12° 171° (S) 15:49:03 437.500
BEESAT 25 Aug 15:44:55 15:49:10 32° 97° (E) 15:53:24 436.000
Gurwin Techsat 1B 25 Aug 15:47:35 15:52:32 40° 261° (W) 15:57:32 435.225
JUGNU 25 Aug 16:00:14 16:02:55 13° 186° (S) 16:05:36 437.505
AO-7 25 Aug 16:01:37 16:09:37 53° 66° (ENE) 16:17:38 29.400- 29.500
ITAMSAT 1 25 Aug 16:05:45 16:10:57 88° 254° (WSW) 16:16:10 435.822/435.867
Cosmos 2499 25 Aug 16:13:30 16:15:20 11° 296° (WNW) 16:17:10 435.465 / 435.565
MOZHAYETS 4 25 Aug 16:23:45 16:24:15 10° 90° (E) 16:24:46
ISS 25 Aug 16:29:42 16:32:07 19° 28° (NNE) 16:34:31 145.825
ITUPSAT 1 25 Aug 16:30:16 16:35:03 84° 286° (WNW) 16:39:49 437.325
KKS-1 25 Aug 16:36:11 16:36:45 10° 91° (E) 16:37:19 437.445
AO-85 25 Aug 16:51:31 16:55:28 43° 245° (WSW) 16:59:11 145.980
HORYU 2 25 Aug 16:53:46 16:55:36 12° 64° (ENE) 16:57:26 437.375
O/OREOS (USA 219) 25 Aug 16:56:28 16:58:49 14° 303° (WNW) 17:01:11 437.305
SWISSCUBE 25 Aug 17:05:13 17:09:25 32° 290° (WNW) 17:13:36 437.505
STARS 25 Aug 17:17:07 17:19:37 15° 93° (E) 17:22:06 437.465
YUBILEINY 25 Aug 17:19:44 17:24:56 17° 64° (ENE) 17:30:04 435.215
BEESAT 25 Aug 17:23:00 17:26:45 24° 292° (WNW) 17:30:31 436.000
SRMSAT 25 Aug 17:32:02 17:35:06 14° 182° (S) 17:38:10 437.500
BRITE-PL 25 Aug 17:50:39 17:54:04 20° 65° (ENE) 17:57:41 437.365/2234.400
AO-7 25 Aug 17:55:20 18:02:34 32° 262° (W) 18:09:50 29.400- 29.500
MOZHAYETS 4 25 Aug 17:57:16 18:01:48 65° 285° (WNW) 18:06:20
ISS 25 Aug 18:05:34 18:08:46 51° 225° (SW) 18:11:57 145.825
KKS-1 25 Aug 18:09:16 18:13:41 62° 286° (WNW) 18:18:04 437.445
Cubesat XI-IV 25 Aug 18:17:11 18:20:56 20° 65° (ENE) 18:24:42 437.490
HORYU 2 25 Aug 18:27:13 18:31:38 58° 259° (W) 18:36:03 437.375
CUTE-I 25 Aug 18:29:09 18:33:29 26° 67° (ENE) 18:37:49 437.470
LilacSat-2 25 Aug 18:30:05 18:32:41 18° 69° (ENE) 18:35:18 437.200
NOAA 15 25 Aug 18:37:42 18:42:33 40° 70° (ENE) 18:47:26 137.62
NOAA 18 25 Aug 18:48:10 18:53:12 37° 69° (ENE) 18:58:14 137.9125
Cosmos 2491 25 Aug 18:51:48 18:59:32 38° 86° (E) 19:07:19 435.465 / 435.565
STARS 25 Aug 18:52:00 18:56:09 42° 288° (WNW) 19:00:17 437.465
Cosmos 2504 25 Aug 19:03:47 19:09:28 24° 71° (ENE) 19:15:04 435.465 / 435.565
CUBESAT XI-V 25 Aug 19:10:38 19:15:21 88° 293° (WNW) 19:20:04 437.345
YUBILEINY 25 Aug 19:14:07 19:22:57 90° 70° (ENE) 19:31:40 435.215
GOMX 1 25 Aug 19:15:15 19:20:08 65° 75° (ENE) 19:25:23 467.674
SRMSAT 25 Aug 19:22:16 19:23:26 11° 192° (SSW) 19:24:35 437.500
BRITE-PL 25 Aug 19:27:45 19:32:09 41° 263° (W) 19:36:56 437.365/2234.400
DOVE 4 25 Aug 19:33:58 19:38:48 46° 72° (ENE) 19:43:49 437.250
Cubesat XI-IV 25 Aug 19:55:27 20:00:37 49° 260° (W) 20:05:47 437.490
BEESAT 2 25 Aug 20:00:25 20:03:13 18° 49° (NE) 20:06:01 435.950
LilacSat-2 25 Aug 20:03:27 20:06:46 27° 263° (W) 20:10:06 437.200
SEEDS 25 Aug 20:06:37 20:08:00 11° 65° (ENE) 20:09:24 437.485
CUTE-I 25 Aug 20:08:26 20:13:19 36° 262° (W) 20:18:13 437.470
NOAA 15 25 Aug 20:18:24 20:22:25 22° 265° (W) 20:26:30 137.62
CANX-2 25 Aug 20:20:51 20:24:28 29° 71° (ENE) 20:28:05 2200.000
BEESAT 3 25 Aug 20:22:32 20:26:27 58° 57° (ENE) 20:30:21 437.485
CUTE 1.7 + AOD 2 25 Aug 20:27:24 20:31:02 29° 71° (ENE) 20:34:41 437.475
NOAA 18 25 Aug 20:29:15 20:33:51 27° 264° (W) 20:38:29 137.9125
HO-68 25 Aug 20:30:37 20:37:34 54° 69° (ENE) 20:44:31 435.675
CINEMA 3 25 Aug 20:31:46 20:36:36 50° 74° (ENE) 20:41:26 145.822/145.860
AAUSAT CUBESAT 2 25 Aug 20:43:10 20:45:43 16° 68° (ENE) 20:48:18 437.432
Cosmos 2491 25 Aug 20:48:02 20:56:10 43° 284° (WNW) 21:04:23 435.465 / 435.565
COMPASS 1 25 Aug 20:48:03 20:51:21 24° 70° (ENE) 20:54:40 437.405
Cosmos 2504 25 Aug 20:56:14 21:03:11 52° 269° (W) 21:10:03 435.465 / 435.565
GOMX 1 25 Aug 20:56:33 20:58:44 13° 272° (W) 21:00:59 467.674
CUBEBUG 2 25 Aug 21:05:56 21:10:05 32° 71° (ENE) 21:14:11 437.445
Oscar 11 25 Aug 21:06:24 21:08:07 12° 65° (ENE) 21:09:51 145.826/435.025
UWE-3 25 Aug 21:09:06 21:12:40 23° 69° (ENE) 21:16:11 435.000/436.395/437.385
FUNcube-1 25 Aug 21:10:18 21:12:25 13° 66° (ENE) 21:14:30 145.935
STRAND 1 25 Aug 21:12:05 21:17:12 81° 104° (ESE) 21:22:18 437.568
DOVE 4 25 Aug 21:13:06 21:16:41 19° 268° (W) 21:20:22 437.250
YUBILEINY 25 Aug 21:13:48 21:18:24 16° 282° (WNW) 21:23:01 435.215
ZACube-1 25 Aug 21:28:53 21:32:25 23° 70° (ENE) 21:35:53 437.345
PRISM 25 Aug 21:31:48 21:33:20 12° 92° (E) 21:34:51 437.425
AIST 1 25 Aug 21:37:11 21:41:25 44° 80° (E) 21:45:35
BEESAT 2 25 Aug 21:37:27 21:41:11 37° 246° (WSW) 21:44:52 435.950
SEEDS 25 Aug 21:39:09 21:43:12 53° 260° (W) 21:47:18 437.485
AIST 2 25 Aug 21:53:10 21:55:12 13° 46° (NE) 21:57:14 435.215
CANX-2 25 Aug 21:57:12 22:00:18 20° 266° (W) 22:03:25 2200.000
CUTE 1.7 + AOD 2 25 Aug 22:03:50 22:06:53 19° 266° (W) 22:09:56 437.475
CINEMA 3 25 Aug 22:10:49 22:13:56 16° 268° (W) 22:17:05 145.822/145.860
AAUSAT CUBESAT 2 25 Aug 22:17:09 22:20:54 35° 263° (W) 22:24:41 437.432
HO-68 25 Aug 22:19:44 22:25:32 26° 265° (W) 22:31:22 435.675
PCSat 25 Aug 22:23:19 22:28:27 41° 57° (ENE) 22:33:32 145.827
COMPASS 1 25 Aug 22:23:31 22:26:48 23° 265° (W) 22:30:09 437.405
HUMSAT D 25 Aug 22:34:53 22:38:13 23° 70° (ENE) 22:41:31 437.325/437.525
DELFI C3 25 Aug 22:39:25 22:43:15 57° 75° (ENE) 22:47:07 145.870
Oscar 11 25 Aug 22:39:34 22:43:46 53° 260° (W) 22:47:59 145.826/435.025
CUBEBUG 2 25 Aug 22:42:57 22:46:40 23° 265° (W) 22:50:22 437.445
FUNcube-1 25 Aug 22:43:49 22:48:12 52° 260° (W) 22:52:31 145.935
UWE-3 25 Aug 22:44:50 22:48:56 31° 263° (W) 22:52:59 435.000/436.395/437.385
STRAND 1 25 Aug 22:54:09 22:55:39 11° 299° (WNW) 22:57:10 437.568
AUBIESAT-1 25 Aug 23:03:23 23:06:56 22° 63° (ENE) 23:10:30 437.475
ZACube-1 25 Aug 23:04:37 23:08:32 29° 263° (W) 23:12:23 437.345
PRISM 25 Aug 23:04:50 23:08:52 48° 286° (WNW) 23:12:53 437.425
M-CUBED/EXP-1 PRIME 25 Aug 23:06:34 23:10:34 29° 65° (ENE) 23:14:38 437.505
UNISAT 6 25 Aug 23:15:02 23:17:56 18° 94° (E) 23:20:49 437.425
AIST 1 25 Aug 23:16:29 23:18:32 13° 275° (W) 23:20:35
GONETS M04 25 Aug 23:29:23 23:36:44 28° 70° (ENE) 23:44:01
AIST 2 25 Aug 23:29:56 23:34:05 64° 243° (WSW) 23:38:12 435.215
VELOX 1 25 Aug 23:46:15 23:48:26 14° 65° (ENE) 23:50:38 145.980
SO-50 25 Aug 23:48:07 23:49:01 10° 106° (ESE) 23:49:56 436.795
ANTELSAT 25 Aug 23:51:06 23:55:15 46° 99° (E) 23:59:20 437.575/2403.000
CUBEBUG 1 25 Aug 23:52:56 23:56:02 19° 68° (ENE) 23:59:11 437.445
Cosmos 2499 26 Aug 00:07:09 00:13:22 32° 74° (ENE) 00:19:37 435.465 / 435.565
50 SAT 26 Aug 00:07:11 00:09:41 18° 69° (ENE) 00:12:11 437.505
PCSat 26 Aug 00:07:17 00:11:33 24° 253° (WSW) 00:15:48 145.827
DX 1 26 Aug 00:10:10 00:12:57 17° 66° (ENE) 00:15:45 434.975-435.025
HUMSAT D 26 Aug 00:10:18 00:13:43 24° 264° (W) 00:17:07 437.325/437.525
ESTCUBE 1 26 Aug 00:15:22 00:19:43 54° 74° (ENE) 00:24:06 437.505/2401.250
QB50P1 26 Aug 00:16:28 00:17:31 11° 91° (E) 00:18:34 145.935-145.965
SPROUT 26 Aug 00:21:08 00:23:42 16° 67° (ENE) 00:26:16 437.525
TIGRISAT 26 Aug 00:22:35 00:26:53 77° 283° (WNW) 00:31:06 435.000
JAS-2 26 Aug 00:23:20 00:25:52 12° 90° (E) 00:28:27 435.910
POPSAT HIP 1 26 Aug 00:25:11 00:27:25 14° 93° (E) 00:29:38 437.405
AISAT 26 Aug 00:32:34 00:36:49 46° 73° (ENE) 00:41:07 437.250
AUBIESAT-1 26 Aug 00:36:53 00:41:05 36° 258° (WSW) 00:45:24 437.475
M-CUBED/EXP-1 PRIME 26 Aug 00:41:01 00:44:57 27° 260° (W) 00:48:59 437.505
UNISAT 6 26 Aug 00:50:53 00:54:44 33° 289° (WNW) 00:58:33 437.425
UKube-1 26 Aug 00:53:16 00:57:17 39° 72° (ENE) 01:01:19 .
QB50P2 26 Aug 00:53:41 00:57:31 33° 97° (E) 01:01:20 145.880/145.840
DUCHIFAT 1 26 Aug 00:54:17 00:57:54 27° 97° (E) 01:01:28 145.980
POLYITAN 1 26 Aug 00:56:12 01:00:03 34° 98° (E) 01:03:52 437.675
NANOSAT C BR1 26 Aug 01:06:43 01:10:44 42° 99° (E) 01:14:42 145.865
CUSAT 1 26 Aug 01:11:32 01:14:11 50° 282° (WNW) 01:17:20 437.405
VELOX 1 26 Aug 01:20:07 01:24:25 52° 260° (W) 01:28:46 145.980
SO-50 26 Aug 01:23:58 01:28:50 79° 300° (WNW) 01:33:41 436.795
GONETS M04 26 Aug 01:25:22 01:33:59 59° 269° (W) 01:42:35
O/OREOS (USA 219) 26 Aug 01:26:46 01:31:22 71° 69° (ENE) 01:35:56 437.305
CUBEBUG 1 26 Aug 01:28:05 01:32:03 34° 262° (W) 01:36:05 437.445
ANTELSAT 26 Aug 01:29:24 01:31:31 14° 295° (WNW) 01:33:37 437.575/2403.000
50 SAT 26 Aug 01:40:14 01:43:06 22° 264° (W) 01:45:58 437.505
RS-15 26 Aug 01:41:46 01:51:46 37° 105° (ESE) 02:02:11 29.354- 29.394
DX 1 26 Aug 01:44:43 01:48:48 39° 261° (W) 01:52:55 434.975-435.025
DANDE 26 Aug 01:49:02 01:51:38 70° 279° (W) 01:54:15 436.750
QB50P1 26 Aug 01:49:28 01:53:35 52° 286° (WNW) 01:57:39 145.935-145.965
ESTCUBE 1 26 Aug 01:55:05 01:56:49 12° 269° (W) 01:58:34 437.505/2401.250
SPROUT 26 Aug 01:55:12 01:59:16 41° 261° (W) 02:03:22 437.525
BUGSAT 1 26 Aug 01:57:46 02:01:54 66° 102° (ESE) 02:05:56 437.445
POPSAT HIP 1 26 Aug 01:59:24 02:03:22 41° 287° (WNW) 02:07:18 437.405
Cosmos 2499 26 Aug 02:00:05 02:06:27 38° 272° (W) 02:12:53 435.465 / 435.565
JAS-2 26 Aug 02:04:36 02:11:27 80° 104° (ESE) 02:19:02 435.910
AISAT 26 Aug 02:11:12 02:13:31 14° 268° (W) 02:15:50 437.250
TISAT 1 26 Aug 02:21:24 02:25:39 79° 77° (ENE) 02:29:55 437.305
QB50P2 26 Aug 02:30:12 02:33:03 18° 293° (WNW) 02:35:53 145.880/145.840
DUCHIFAT 1 26 Aug 02:30:14 02:33:24 21° 291° (WNW) 02:36:32 145.980
UKube-1 26 Aug 02:30:49 02:33:27 16° 266° (W) 02:36:06 .
SWISSCUBE 26 Aug 02:32:25 02:36:00 22° 67° (ENE) 02:39:37 437.505
POLYITAN 1 26 Aug 02:32:46 02:35:35 18° 292° (WNW) 02:38:21 437.675
NANOSAT C BR1 26 Aug 02:43:48 02:46:04 14° 294° (WNW) 02:48:20 145.865
BEESAT 26 Aug 02:49:12 02:53:17 29° 69° (ENE) 02:57:22 436.000
SO-50 26 Aug 03:08:29 03:10:05 11° 319° (NW) 03:11:40 436.795
Oscar 19 26 Aug 03:11:04 03:16:15 65° 102° (ESE) 03:21:24 437.125/150
PHONESAT 2.4 26 Aug 03:29:43 03:32:33 40° 154° (SSE) 03:35:24 2401.200-2431.200
ITUPSAT 1 26 Aug 03:34:30 03:39:16 87° 77° (ENE) 03:44:03 437.325
JAS-2 26 Aug 03:51:29 03:55:51 18° 297° (WNW) 04:00:29 435.910
RS-15 26 Aug 03:52:09 04:03:30 61° 306° (NW) 04:15:33 29.354- 29.394
Gurwin Techsat 1B 26 Aug 04:05:38 04:10:59 84° 285° (WNW) 04:16:18 435.225
AO-7 26 Aug 04:07:37 04:12:47 18° 92° (E) 04:17:54 29.400- 29.500
SWISSCUBE 26 Aug 04:09:14 04:13:33 35° 262° (W) 04:17:54 437.505
STARS 26 Aug 04:13:12 04:14:21 11° 63° (ENE) 04:15:31 437.465
ITAMSAT 1 26 Aug 04:21:07 04:25:57 39° 99° (E) 04:30:45 435.822/435.867
BEESAT 26 Aug 04:27:04 04:31:00 26° 264° (W) 04:34:58 436.000
Oscar 19 26 Aug 04:52:13 04:54:58 15° 297° (WNW) 04:57:43 437.125/150
MOZHAYETS 4 26 Aug 04:56:28 05:01:02 89° 56° (NE) 05:05:37
KKS-1 26 Aug 05:04:33 05:09:02 89° 63° (ENE) 05:13:32 437.445
PHONESAT 2.4 26 Aug 05:05:58 05:08:54 49° 349° (N) 05:11:49 2401.200-2431.200
Cosmos 2491 26 Aug 05:06:05 05:11:04 16° 64° (ENE) 05:16:01 435.465 / 435.565
AO-85 26 Aug 05:25:48 05:27:19 11° 106° (ESE) 05:28:51 145.980
STARS 26 Aug 05:45:43 05:50:07 66° 258° (WSW) 05:54:33 437.465
AO-7 26 Aug 05:58:00 06:06:21 84° 289° (WNW) 06:14:38 29.400- 29.500
ITAMSAT 1 26 Aug 06:01:09 06:05:09 23° 294° (WNW) 06:09:08 435.822/435.867
RS-15 26 Aug 06:10:44 06:19:18 22° 335° (NNW) 06:28:09 29.354- 29.394
CUBESAT XI-V 26 Aug 06:11:23 06:15:56 68° 76° (ENE) 06:20:32 437.345
YUBILEINY 26 Aug 06:18:33 06:24:32 21° 80° (E) 06:30:30 435.215
HORYU 2 26 Aug 06:20:40 06:24:33 30° 97° (E) 06:28:25 437.375
PHONESAT 2.4 26 Aug 06:42:39 06:45:31 41° 5° (N) 06:48:23 2401.200-2431.200
CUTE-I 26 Aug 06:50:28 06:51:58 11° 90° (E) 06:53:29 437.470
STRAND 1 26 Aug 06:51:59 06:52:18 10° 60° (ENE) 06:52:37 437.568
NOAA 15 26 Aug 06:56:00 06:59:33 18° 93° (E) 07:03:05 137.62
Cosmos 2491 26 Aug 07:00:19 07:09:12 86° 83° (E) 07:18:04 435.465 / 435.565
AO-85 26 Aug 07:01:51 07:07:13 85° 301° (WNW) 07:12:19 145.980
NOAA 18 26 Aug 07:13:23 07:17:02 18° 94° (E) 07:20:40 137.9125
GOMX 1 26 Aug 07:20:09 07:24:37 26° 93° (E) 07:28:52 467.674
BRITE-PL 26 Aug 07:33:55 07:39:40 80° 102° (ESE) 07:45:15 437.365/2234.400
DOVE 4 26 Aug 07:37:03 07:39:56 15° 90° (E) 07:42:43 437.250
LilacSat-2 26 Aug 07:38:39 07:42:05 33° 97° (E) 07:45:30 437.200
Cosmos 2504 26 Aug 07:39:18 07:45:44 25° 84° (E) 07:51:53 435.465 / 435.565
AO-7 26 Aug 07:52:54 07:57:54 18° 308° (NW) 08:02:53 29.400- 29.500
HORYU 2 26 Aug 07:57:32 08:00:55 22° 292° (WNW) 08:04:17 437.375
YUBILEINY 26 Aug 08:11:29 08:20:19 75° 278° (W) 08:29:11 435.215
Cubesat XI-IV 26 Aug 08:14:44 08:20:05 82° 103° (ESE) 08:25:24 437.490
PHONESAT 2.4 26 Aug 08:19:01 08:21:59 70° 203° (SSW) 08:24:58 2401.200-2431.200
STRAND 1 26 Aug 08:25:34 08:30:42 89° 292° (WNW) 08:35:49 437.568
CUTE-I 26 Aug 08:27:13 08:32:32 76° 285° (WNW) 08:37:49 437.470
CINEMA 3 26 Aug 08:31:08 08:33:11 13° 90° (E) 08:35:12 145.822/145.860
RS-15 26 Aug 08:31:09 08:38:39 17° 13° (NNE) 08:46:12 29.354- 29.394
NOAA 15 26 Aug 08:34:25 08:39:34 50° 288° (WNW) 08:44:40 137.62
AO-85 26 Aug 08:45:52 08:48:20 13° 316° (NW) 08:50:44 145.980
NOAA 18 26 Aug 08:52:40 08:57:57 52° 289° (WNW) 09:03:14 137.9125
GOMX 1 26 Aug 08:57:46 09:02:41 36° 290° (WNW) 09:07:24 467.674
Cosmos 2491 26 Aug 08:59:43 09:04:48 17° 282° (WNW) 09:09:53 435.465 / 435.565
ISS 26 Aug 09:08:42 09:10:34 14° 128° (SE) 09:12:26 145.825
DOVE 4 26 Aug 09:13:02 09:17:58 51° 287° (WNW) 09:22:36 437.250
LilacSat-2 26 Aug 09:14:03 09:16:05 14° 292° (WNW) 09:18:06 437.200
BRITE-PL 26 Aug 09:14:30 09:17:21 14° 298° (WNW) 09:20:09 437.365/2234.400
